Regional Weather Roundup
Issued by NWS

Home | Current Version | Previous Version | Text Only | Print | Product List | Glossary On
Versions: 1 2 3 4 5 6 7 8 9 10 11 12 13 14 15 16 17 18 19 20 21 22 23 24 25 26 27 28 29 30 31 32 33 34 35 36 37 38 39 40 41 42 43 44 45 46 47 48 49 50
000
ASUS43 KTOP 142208
RWRKS

WEATHER ROUNDUP FOR KANSAS
NATIONAL WEATHER SERVICE GOODLAND KS
400 PM CST THU DEC 14 2017

NOTE:  "FAIR" INDICATES FEW OR NO CLOUDS BELOW 12,000 FEET WITH NO
SIGNIFICANT WEATHER AND/OR OBSTRUCTIONS TO VISIBILITY.

KSZ001>006-013>018-027>032-041>047-142300-
NORTHWEST KANSAS

CITY           SKY/WX    TMP DP  RH WIND       PRES   REMARKS
GOODLAND       MOSUNNY   35  25  66 N17G28    30.16R WCI  25
HAYS           CLOUDY    44  27  51 N21G29    30.12S
HILL CITY      PTSUNNY   43  28  55 N26G35    30.15R
RUSSELL        CLOUDY    42  35  76 NW14      30.10R
$$

KSZ061>065-074>080-084>089-142300-
SOUTHWEST KANSAS

CITY           SKY/WX    TMP DP  RH WIND       PRES   REMARKS
DODGE CITY     CLOUDY    46  25  43 N12       30.12R
ELKHART        MOSUNNY   46  29  52 N17       30.17R
GARDEN CITY    CLOUDY    46  23  40 N18G25    30.13R
GREAT BEND     LGT RAIN  42  33  70 NW23G29   30.12R
LIBERAL        PTSUNNY   47  21  35 N22G28    30.15R
PRATT          CLOUDY    46  27  47 NW14      30.11R
$$

KSZ066>073-081>083-090>101-142300-
SOUTHEAST KANSAS

CITY           SKY/WX    TMP DP  RH WIND       PRES   REMARKS
CHANUTE        CLEAR     46  25  43 NW6       30.09S
COFFEYVILLE    SUNNY     47  26  44 N6        30.10F
HUTCHINSON     PTSUNNY   47  32  56 NW13      30.09R
MEDICINE LODGE   N/A     50  28  42 NW14G21   30.09S
NEWTON         CLOUDY    45  29  53 NW15      30.09R
PARSONS        CLEAR     47  26  44 N7        30.10F
WICHITA INTL   PTSUNNY   50  27  40 NW15      30.09R
WICHITA JABRA  CLOUDY    47  28  47 NW12      30.09R
WICHITA MCCONL CLOUDY    48  24  39 N12       30.08S
WINFIELD       CLOUDY    48  26  42 NW7       30.11S
$$

KSZ007>012-019>026-033>040-048>060-102>105-142300-
NORTHEAST KANSAS

CITY           SKY/WX    TMP DP  RH WIND       PRES   REMARKS
CONCORDIA      CLOUDY    41  36  82 NW9       30.08R
EMPORIA        CLOUDY    45  25  45 W8        30.07S
LAWRENCE       CLOUDY    44  26  49 NW6       30.07S
MANHATTAN      CLOUDY    45  29  53 W7        30.08R
MARYSVILLE     CLOUDY    41  32  70 NW14      30.07S
OLATHE IND     CLOUDY    40  25  55 CALM      30.08S
OLATHE EXE     CLOUDY    39  25  57 NW3       30.07S
SALINA         CLOUDY    47  33  58 NW16      30.09S
TOPEKA BILLARD CLOUDY    46  27  47 W12       30.07S
TOPEKA FORBES  PTCLDY    46  26  45 NW10      30.06S
$$




USA.gov is the U.S. government's official web portal to all federal, state and local government web resources and services.